Time,TemperatureF,DewpointF,PressureIn,WindDirection,WindDirectionDegrees,WindSpeedMPH,WindSpeedGustMPH,Humidity,HourlyPrecipIn,Conditions,Clouds,dailyrainin,SoftwareType,DateUTC
2013-05-03 00:01:00,48.4,16.0,34.55,West,275,5.4,10.1,27,0.00,,-RA,0.00,VWS V14.00,2013-05-03 06:01:00,
2013-05-03 00:06:00,48.6,16.1,34.55,West,263,5.4,10.1,27,0.00,,-RA,0.00,VWS V14.00,2013-05-03 06:06:00,
2013-05-03 00:11:00,48.6,16.1,34.55,West,270,8.1,10.1,27,0.00,,-RA,0.00,VWS V14.00,2013-05-03 06:11:00,
2013-05-03 00:16:00,48.4,16.0,34.55,West,272,11.0,11.0,27,0.00,,-RA,0.00,VWS V14.00,2013-05-03 06:16:00,
2013-05-03 00:21:00,48.4,16.0,34.55,West,278,5.8,11.0,27,0.00,,-RA,0.00,VWS V14.00,2013-05-03 06:21:00,
2013-05-03 00:26:00,48.2,15.8,34.55,West,272,5.8,11.0,27,0.00,,-RA,0.00,VWS V14.00,2013-05-03 06:26:00,
2013-05-03 00:31:00,48.4,16.0,34.55,West,264,7.6,10.5,27,0.00,,-RA,0.00,VWS V14.00,2013-05-03 06:31:00,
2013-05-03 00:36:00,48.4,16.0,34.55,West,272,8.1,10.5,27,0.00,,-RA,0.00,VWS V14.00,2013-05-03 06:36:00,
2013-05-03 00:41:00,48.2,15.8,34.55,West,279,5.8,10.5,27,0.00,,-RA,0.00,VWS V14.00,2013-05-03 06:41:00,
2013-05-03 00:46:00,48.2,15.8,34.55,NW,324,3.6,10.5,27,0.00,,-RA,0.00,VWS V14.00,2013-05-03 06:46:00,
2013-05-03 00:51:00,48.2,15.8,34.55,West,260,2.2,10.5,27,0.00,,-RA,0.00,VWS V14.00,2013-05-03 06:51:00,
2013-05-03 00:56:00,48.0,15.6,34.55,WSW,256,3.6,10.5,27,0.00,,-RA,0.00,VWS V14.00,2013-05-03 06:56:00,
2013-05-03 01:01:00,47.7,15.3,34.55,WNW,285,5.4,8.1,27,0.00,,-RA,0.00,VWS V14.00,2013-05-03 07:01:00,
2013-05-03 01:06:00,47.7,15.3,34.55,West,263,4.9,8.1,27,0.00,,OVC060,0.00,VWS V14.00,2013-05-03 07:06:00,
2013-05-03 01:11:00,47.7,15.3,34.55,SW,233,5.8,8.3,27,0.00,,OVC060,0.00,VWS V14.00,2013-05-03 07:11:00,
2013-05-03 01:16:00,47.8,15.5,34.55,West,270,3.1,8.3,27,0.00,,OVC060,0.00,VWS V14.00,2013-05-03 07:16:00,
2013-05-03 01:21:00,47.7,15.3,34.55,West,260,8.1,11.9,27,0.00,,OVC060,0.00,VWS V14.00,2013-05-03 07:21:00,
2013-05-03 01:26:00,47.7,15.3,34.55,WNW,288,4.9,11.9,27,0.00,,OVC060,0.00,VWS V14.00,2013-05-03 07:26:00,
2013-05-03 01:31:00,47.8,15.5,34.55,West,273,0.0,4.0,27,0.00,,OVC060,0.00,VWS V14.00,2013-05-03 07:31:00,
2013-05-03 01:36:00,47.5,15.2,34.55,West,259,6.3,8.3,27,0.00,,OVC060,0.00,VWS V14.00,2013-05-03 07:36:00,
2013-05-03 01:41:00,47.3,15.0,34.55,WSW,256,6.3,8.3,27,0.00,,OVC060,0.00,VWS V14.00,2013-05-03 07:41:00,
2013-05-03 01:46:00,47.3,15.0,34.55,WSW,250,2.7,9.6,27,0.00,,OVC060,0.00,VWS V14.00,2013-05-03 07:46:00,
2013-05-03 01:51:00,47.5,15.2,34.55,WSW,252,7.6,9.6,27,0.00,,OVC060,0.00,VWS V14.00,2013-05-03 07:51:00,
2013-05-03 01:56:00,47.3,15.0,34.55,West,259,3.6,9.6,27,0.00,,OVC060,0.00,VWS V14.00,2013-05-03 07:56:00,
2013-05-03 02:01:00,47.3,15.0,34.55,WSW,250,6.3,7.6,27,0.00,,OVC060,0.00,VWS V14.00,2013-05-03 08:01:00,
2013-05-03 02:06:00,47.3,15.0,34.55,WSW,248,3.6,8.1,27,0.00,,OVC055,0.00,VWS V14.00,2013-05-03 08:06:00,
2013-05-03 02:11:00,47.3,15.0,34.55,West,270,2.7,10.5,27,0.00,,OVC055,0.00,VWS V14.00,2013-05-03 08:11:00,
2013-05-03 02:16:00,47.3,15.0,34.55,West,276,3.1,10.5,27,0.00,,OVC055,0.00,VWS V14.00,2013-05-03 08:16:00,
2013-05-03 02:21:00,47.1,14.9,34.55,WSW,257,2.2,10.5,27,0.00,,OVC055,0.00,VWS V14.00,2013-05-03 08:21:00,
2013-05-03 02:26:00,47.1,14.9,34.55,West,276,3.6,10.5,27,0.00,,OVC055,0.00,VWS V14.00,2013-05-03 08:26:00,
2013-05-03 02:31:00,47.1,14.9,34.55,WSW,252,8.1,8.1,27,0.00,,OVC055,0.00,VWS V14.00,2013-05-03 08:31:00,
2013-05-03 02:36:00,47.1,14.9,34.55,West,270,5.8,10.5,27,0.00,,OVC055,0.00,VWS V14.00,2013-05-03 08:36:00,
2013-05-03 02:41:00,46.9,14.7,34.55,WSW,240,2.7,10.5,27,0.00,,OVC055,0.00,VWS V14.00,2013-05-03 08:41:00,
2013-05-03 02:46:00,46.8,14.6,34.55,WSW,249,5.4,10.5,27,0.00,,OVC055,0.00,VWS V14.00,2013-05-03 08:46:00,
2013-05-03 02:51:00,46.8,15.4,34.55,West,277,3.6,10.5,28,0.00,,OVC060,0.00,VWS V14.00,2013-05-03 08:51:00,
2013-05-03 02:56:00,46.6,14.4,34.55,WSW,256,2.2,10.5,27,0.00,,OVC060,0.00,VWS V14.00,2013-05-03 08:56:00,
2013-05-03 03:01:00,46.8,15.4,34.55,WNW,282,8.1,10.5,28,0.00,,OVC060,0.00,VWS V14.00,2013-05-03 09:01:00,
2013-05-03 03:06:00,46.8,15.4,34.55,West,265,6.3,10.5,28,0.00,,OVC060,0.00,VWS V14.00,2013-05-03 09:06:00,
2013-05-03 03:11:00,46.8,14.6,34.55,West,279,6.3,10.5,27,0.00,,OVC060,0.00,VWS V14.00,2013-05-03 09:11:00,
2013-05-03 03:16:00,46.8,15.4,34.55,West,262,7.2,10.5,28,0.00,,OVC060,0.00,VWS V14.00,2013-05-03 09:16:00,
2013-05-03 03:21:00,46.8,15.4,34.55,West,268,8.7,10.5,28,0.00,,OVC060,0.00,VWS V14.00,2013-05-03 09:21:00,
2013-05-03 03:26:00,46.8,15.4,34.55,WSW,250,4.0,10.5,28,0.00,,OVC060,0.00,VWS V14.00,2013-05-03 09:26:00,
2013-05-03 03:31:00,46.8,15.4,34.55,WSW,254,4.0,6.7,28,0.00,,OVC060,0.00,VWS V14.00,2013-05-03 09:31:00,
2013-05-03 03:35:00,46.8,15.4,34.55,West,272,5.4,11.9,28,0.00,,OVC060,0.00,VWS V14.00,2013-05-03 09:35:00,
2013-05-03 03:41:00,46.6,15.2,34.55,WSW,254,5.4,11.9,28,0.00,,OVC060,0.00,VWS V14.00,2013-05-03 09:41:00,
2013-05-03 03:46:00,46.6,15.2,34.55,West,278,6.7,11.9,28,0.00,,OVC060,0.00,VWS V14.00,2013-05-03 09:46:00,
2013-05-03 03:51:00,46.4,15.1,34.55,West,262,5.4,11.9,28,0.00,,OVC060,0.00,VWS V14.00,2013-05-03 09:51:00,
2013-05-03 03:56:00,46.2,14.9,34.55,WSW,252,4.9,11.9,28,0.00,,OVC060,0.00,VWS V14.00,2013-05-03 09:56:00,
2013-05-03 04:01:00,46.0,14.8,34.55,West,261,6.3,6.3,28,0.00,,OVC060,0.00,VWS V14.00,2013-05-03 10:01:00,
2013-05-03 04:06:00,46.0,14.8,34.55,West,261,6.3,8.3,28,0.00,,OVC070,0.00,VWS V14.00,2013-05-03 10:06:00,
2013-05-03 04:11:00,45.9,14.6,34.55,West,280,7.6,8.3,28,0.00,,OVC070,0.00,VWS V14.00,2013-05-03 10:11:00,
2013-05-03 04:16:00,46.0,14.8,34.55,WSW,257,9.6,9.6,28,0.00,,OVC070,0.00,VWS V14.00,2013-05-03 10:16:00,
2013-05-03 04:21:00,46.0,14.8,34.55,West,261,6.3,9.6,28,0.00,,OVC070,0.00,VWS V14.00,2013-05-03 10:21:00,
2013-05-03 04:26:00,46.2,14.9,34.55,WSW,257,6.3,11.0,28,0.00,,OVC070,0.00,VWS V14.00,2013-05-03 10:26:00,
2013-05-03 04:31:00,46.4,15.1,34.55,WSW,254,5.8,8.3,28,0.00,,OVC070,0.00,VWS V14.00,2013-05-03 10:31:00,
2013-05-03 04:36:00,46.8,15.4,34.55,West,265,8.1,9.6,28,0.00,,OVC070,0.00,VWS V14.00,2013-05-03 10:36:00,
2013-05-03 04:40:00,46.8,15.4,34.55,WSW,253,5.4,10.5,28,0.00,,OVC070,0.00,VWS V14.00,2013-05-03 10:40:00,
2013-05-03 04:45:00,46.6,15.2,34.55,WSW,250,0.0,10.5,28,0.00,,OVC070,0.00,VWS V14.00,2013-05-03 10:45:00,
2013-05-03 04:50:00,46.2,15.7,34.55,West,277,5.8,10.5,29,0.00,,OVC070,0.00,VWS V14.00,2013-05-03 10:50:00,
2013-05-03 04:55:00,46.0,14.8,34.55,West,279,6.3,10.5,28,0.00,,OVC070,0.00,VWS V14.00,2013-05-03 10:55:00,
2013-05-03 05:00:00,46.2,14.9,34.55,West,262,5.4,6.3,28,0.00,,OVC070,0.00,VWS V14.00,2013-05-03 11:00:00,
2013-05-03 05:05:00,46.4,15.1,34.55,West,259,5.8,8.3,28,0.00,,OVC070,0.00,VWS V14.00,2013-05-03 11:05:00,
2013-05-03 05:11:00,46.2,14.9,34.55,West,263,3.1,8.3,28,0.00,,OVC070,0.00,VWS V14.00,2013-05-03 11:11:00,
2013-05-03 05:16:00,46.0,14.8,34.55,WSW,252,8.1,8.3,28,0.00,,OVC070,0.00,VWS V14.00,2013-05-03 11:16:00,
2013-05-03 05:21:00,45.9,14.6,34.55,WSW,258,5.4,8.3,28,0.00,,OVC070,0.00,VWS V14.00,2013-05-03 11:21:00,
2013-05-03 05:25:00,46.0,14.8,34.55,WSW,237,4.9,10.1,28,0.00,,OVC070,0.00,VWS V14.00,2013-05-03 11:25:00,
2013-05-03 05:30:00,46.2,14.9,34.55,SW,235,3.6,4.9,28,0.00,,OVC070,0.00,VWS V14.00,2013-05-03 11:30:00,
2013-05-03 05:35:00,46.2,14.9,34.55,West,270,2.7,5.8,28,0.00,,OVC070,0.00,VWS V14.00,2013-05-03 11:35:00,
2013-05-03 05:40:00,45.9,14.6,34.55,West,275,3.1,8.3,28,0.00,,OVC070,0.00,VWS V14.00,2013-05-03 11:40:00,
2013-05-03 05:45:00,45.9,14.6,34.55,WSW,252,3.6,8.3,28,0.00,,OVC070,0.00,VWS V14.00,2013-05-03 11:45:00,
2013-05-03 05:50:00,45.9,14.6,34.55,WSW,244,3.6,8.3,28,0.00,,OVC070,0.00,VWS V14.00,2013-05-03 11:50:00,
2013-05-03 05:55:00,45.7,15.3,34.55,WSW,253,3.6,8.3,29,0.00,,OVC070,0.00,VWS V14.00,2013-05-03 11:55:00,
2013-05-03 06:00:00,45.9,15.4,34.55,WSW,251,3.6,6.3,29,0.00,,OVC070,0.00,VWS V14.00,2013-05-03 12:00:00,
2013-05-03 06:05:00,45.9,14.6,34.55,WSW,243,2.7,8.1,28,0.00,,OVC070,0.00,VWS V14.00,2013-05-03 12:05:00,
2013-05-03 06:10:00,45.9,15.4,34.55,West,262,5.8,8.1,29,0.00,,OVC070,0.00,VWS V14.00,2013-05-03 12:10:00,
2013-05-03 06:15:00,45.7,14.5,34.55,WSW,248,0.0,8.1,28,0.00,,OVC070,0.00,VWS V14.00,2013-05-03 12:15:00,
2013-05-03 06:20:00,45.5,15.1,34.55,WSW,246,0.0,8.1,29,0.00,,OVC070,0.00,VWS V14.00,2013-05-03 12:20:00,
2013-05-03 06:25:00,45.3,14.9,34.55,SW,221,0.0,8.1,29,0.00,,OVC070,0.00,VWS V14.00,2013-05-03 12:25:00,
2013-05-03 06:30:00,45.1,14.8,34.55,SW,222,0.0,0.0,29,0.00,,OVC070,0.00,VWS V14.00,2013-05-03 12:30:00,
2013-05-03 06:35:00,45.1,14.8,34.55,SW,222,0.0,3.6,29,0.00,,OVC070,0.00,VWS V14.00,2013-05-03 12:35:00,
2013-05-03 06:40:00,45.0,14.6,34.55,SW,222,0.0,3.6,29,0.00,,OVC070,0.00,VWS V14.00,2013-05-03 12:40:00,
2013-05-03 06:45:00,45.0,14.6,34.55,SW,222,0.0,3.6,29,0.00,,OVC070,0.00,VWS V14.00,2013-05-03 12:45:00,
2013-05-03 06:50:00,45.0,15.4,34.55,SW,222,0.0,4.0,30,0.00,,OVC070,0.00,VWS V14.00,2013-05-03 12:50:00,
2013-05-03 06:55:00,45.1,14.8,34.55,West,262,0.0,5.8,29,0.00,,OVC070,0.00,VWS V14.00,2013-05-03 12:55:00,
2013-05-03 07:00:00,45.5,15.1,34.55,SW,227,0.0,0.0,29,0.00,,OVC070,0.00,VWS V14.00,2013-05-03 13:00:00,
2013-05-03 07:05:00,46.0,16.4,34.55,SW,227,0.0,0.0,30,0.00,,BKN065,0.00,VWS V14.00,2013-05-03 13:05:00,
2013-05-03 07:10:00,46.4,15.9,34.55,SW,227,0.0,0.0,29,0.00,,BKN065,0.00,VWS V14.00,2013-05-03 13:10:00,
2013-05-03 07:15:00,46.8,16.2,34.55,West,266,0.0,7.6,29,0.00,,BKN065,0.00,VWS V14.00,2013-05-03 13:15:00,
2013-05-03 07:20:00,47.3,16.7,34.55,WSW,250,3.6,8.7,29,0.00,,BKN065,0.00,VWS V14.00,2013-05-03 13:20:00,
2013-05-03 07:25:00,48.2,17.5,34.55,West,276,2.7,8.7,29,0.00,,BKN065,0.00,VWS V14.00,2013-05-03 13:25:00,
2013-05-03 07:30:00,48.9,17.3,34.55,West,265,4.9,10.1,28,0.00,,BKN065,0.00,VWS V14.00,2013-05-03 13:30:00,
2013-05-03 07:35:00,49.5,17.7,34.55,WNW,292,8.7,10.1,28,0.00,,BKN065,0.00,VWS V14.00,2013-05-03 13:35:00,
2013-05-03 07:40:00,50.0,18.2,34.55,WNW,283,5.8,11.9,28,0.00,,BKN065,0.00,VWS V14.00,2013-05-03 13:40:00,
2013-05-03 07:45:00,50.0,18.2,34.55,WSW,256,8.3,11.9,28,0.00,,BKN065,0.00,VWS V14.00,2013-05-03 13:45:00,
2013-05-03 07:50:00,50.2,18.4,34.55,SW,235,0.0,11.9,28,0.00,,BKN065,0.00,VWS V14.00,2013-05-03 13:50:00,
2013-05-03 07:55:00,50.2,17.5,34.55,WSW,244,8.1,11.9,27,0.00,,BKN065,0.00,VWS V14.00,2013-05-03 13:55:00,
2013-05-03 08:00:00,50.9,19.0,34.55,SW,229,5.4,5.4,28,0.00,,BKN065,0.00,VWS V14.00,2013-05-03 14:00:00,
2013-05-03 08:05:00,51.6,19.6,34.55,WSW,258,3.6,6.3,28,0.00,,OVC100,0.00,VWS V14.00,2013-05-03 14:05:00,
2013-05-03 08:10:00,52.2,19.2,34.55,SW,219,5.8,6.7,27,0.00,,OVC100,0.00,VWS V14.00,2013-05-03 14:10:00,
2013-05-03 08:15:00,52.5,19.5,34.55,WSW,258,3.6,6.7,27,0.00,,OVC100,0.00,VWS V14.00,2013-05-03 14:15:00,
2013-05-03 08:20:00,53.1,20.0,34.55,West,264,5.4,6.7,27,0.00,,OVC100,0.00,VWS V14.00,2013-05-03 14:20:00,
2013-05-03 08:25:00,53.6,20.5,34.55,SW,226,5.8,7.6,27,0.00,,OVC100,0.00,VWS V14.00,2013-05-03 14:25:00,
2013-05-03 08:30:00,54.1,20.9,34.55,West,270,3.1,3.6,27,0.00,,OVC100,0.00,VWS V14.00,2013-05-03 14:30:00,
2013-05-03 08:35:00,54.7,21.4,34.55,WSW,258,4.0,10.1,27,0.00,,OVC100,0.00,VWS V14.00,2013-05-03 14:35:00,
2013-05-03 08:40:00,55.0,21.7,34.55,SW,227,6.3,10.1,27,0.00,,OVC100,0.00,VWS V14.00,2013-05-03 14:40:00,
2013-05-03 08:45:00,55.4,22.0,34.55,WSW,239,5.8,10.5,27,0.00,,OVC100,0.00,VWS V14.00,2013-05-03 14:45:00,
2013-05-03 08:50:00,55.9,21.6,34.55,WSW,241,5.8,10.5,26,0.00,,OVC100,0.00,VWS V14.00,2013-05-03 14:50:00,
2013-05-03 08:55:00,56.1,21.7,34.55,WSW,253,7.6,12.8,26,0.00,,OVC100,0.00,VWS V14.00,2013-05-03 14:55:00,
2013-05-03 09:00:00,56.5,22.0,34.55,SSW,211,8.1,8.1,26,0.00,,OVC100,0.00,VWS V14.00,2013-05-03 15:00:00,
2013-05-03 09:05:00,56.8,22.3,34.55,WSW,244,5.8,8.3,26,0.00,,OVC100,0.00,VWS V14.00,2013-05-03 15:05:00,
2013-05-03 09:10:00,57.2,22.6,34.55,WSW,239,4.9,10.5,26,0.00,,OVC100,0.00,VWS V14.00,2013-05-03 15:10:00,
2013-05-03 09:15:00,57.6,23.0,34.55,SW,235,5.8,10.5,26,0.00,,OVC100,0.00,VWS V14.00,2013-05-03 15:15:00,
2013-05-03 09:20:00,58.1,23.4,34.55,West,264,8.3,10.5,26,0.00,,OVC100,0.00,VWS V14.00,2013-05-03 15:20:00,
2013-05-03 09:25:00,58.5,23.7,34.55,WSW,243,5.8,10.5,26,0.00,,OVC100,0.00,VWS V14.00,2013-05-03 15:25:00,
2013-05-03 09:30:00,59.0,23.2,34.55,WSW,247,6.3,8.3,25,0.00,,OVC100,0.00,VWS V14.00,2013-05-03 15:30:00,
2013-05-03 09:35:00,59.7,23.9,34.55,WSW,238,8.7,11.9,25,0.00,,OVC100,0.00,VWS V14.00,2013-05-03 15:35:00,
2013-05-03 09:40:00,60.6,24.6,34.55,WSW,239,6.7,11.9,25,0.00,,OVC100,0.00,VWS V14.00,2013-05-03 15:40:00,
2013-05-03 09:45:00,61.3,25.2,34.55,SW,215,4.9,11.9,25,0.00,,OVC100,0.00,VWS V14.00,2013-05-03 15:45:00,
2013-05-03 09:50:00,61.9,25.7,34.55,WSW,241,3.6,11.9,25,0.00,,OVC100,0.00,VWS V14.00,2013-05-03 15:50:00,
2013-05-03 09:55:00,62.6,25.3,34.55,West,259,8.1,11.9,24,0.00,,OVC100,0.00,VWS V14.00,2013-05-03 15:55:00,
2013-05-03 10:00:00,63.1,25.8,34.55,WNW,289,5.8,8.1,24,0.00,,OVC100,0.00,VWS V14.00,2013-05-03 16:00:00,
2013-05-03 10:05:00,63.3,25.9,34.55,SW,229,10.1,10.1,24,0.00,,OVC100,0.00,VWS V14.00,2013-05-03 16:05:00,
2013-05-03 10:10:00,63.5,26.1,34.55,WSW,253,5.4,13.2,24,0.00,,OVC100,0.00,VWS V14.00,2013-05-03 16:10:00,
2013-05-03 10:15:00,63.9,26.4,34.55,West,260,2.2,13.2,24,0.00,,OVC100,0.00,VWS V14.00,2013-05-03 16:15:00,
2013-05-03 10:20:00,64.0,26.5,34.55,WSW,254,7.2,13.2,24,0.00,,OVC100,0.00,VWS V14.00,2013-05-03 16:20:00,
2013-05-03 10:25:00,64.4,25.8,34.55,WSW,248,4.5,13.2,23,0.00,,OVC100,0.00,VWS V14.00,2013-05-03 16:25:00,
2013-05-03 10:30:00,64.8,26.1,34.55,WNW,283,8.1,8.1,23,0.00,,OVC100,0.00,VWS V14.00,2013-05-03 16:30:00,
2013-05-03 10:35:00,64.9,26.3,34.55,WSW,237,4.0,8.3,23,0.00,,OVC100,0.00,VWS V14.00,2013-05-03 16:35:00,
2013-05-03 10:40:00,65.1,26.4,34.55,West,279,10.5,12.8,23,0.00,,OVC100,0.00,VWS V14.00,2013-05-03 16:40:00,
2013-05-03 10:45:00,65.1,26.4,34.55,West,273,5.8,12.8,23,0.00,,OVC100,0.00,VWS V14.00,2013-05-03 16:45:00,
2013-05-03 10:50:00,65.1,26.4,34.55,West,266,3.1,12.8,23,0.00,,OVC100,0.00,VWS V14.00,2013-05-03 16:50:00,
2013-05-03 10:55:00,65.3,26.6,34.55,WNW,282,4.9,12.8,23,0.00,,OVC100,0.00,VWS V14.00,2013-05-03 16:55:00,
2013-05-03 11:00:00,65.1,26.4,34.55,WSW,239,6.3,6.3,23,0.00,,OVC100,0.00,VWS V14.00,2013-05-03 17:00:00,
2013-05-03 11:05:00,65.3,26.6,34.55,NW,304,6.3,10.1,23,0.00,,OVC055,0.00,VWS V14.00,2013-05-03 17:05:00,
2013-05-03 11:10:00,65.7,26.9,34.55,WSW,244,3.6,10.1,23,0.00,,OVC055,0.00,VWS V14.00,2013-05-03 17:10:00,
2013-05-03 11:15:00,65.7,26.9,34.55,WNW,295,6.3,13.2,23,0.00,,OVC055,0.00,VWS V14.00,2013-05-03 17:15:00,
2013-05-03 11:20:00,65.5,26.7,34.55,NW,315,5.8,13.2,23,0.00,,OVC055,0.00,VWS V14.00,2013-05-03 17:20:00,
2013-05-03 11:25:00,65.5,26.7,34.55,SW,231,5.8,13.2,23,0.00,,OVC055,0.00,VWS V14.00,2013-05-03 17:25:00,
2013-05-03 11:30:00,65.5,26.7,34.55,West,268,2.2,5.4,23,0.00,,OVC055,0.00,VWS V14.00,2013-05-03 17:30:00,
2013-05-03 11:35:00,65.7,26.9,34.55,WNW,295,3.1,11.9,23,0.00,,OVC055,0.00,VWS V14.00,2013-05-03 17:35:00,
2013-05-03 11:40:00,66.0,27.2,34.55,West,274,11.0,11.9,23,0.00,,OVC055,0.00,VWS V14.00,2013-05-03 17:40:00,
2013-05-03 11:45:00,66.6,26.6,34.55,WSW,257,2.2,11.9,22,0.00,,OVC055,0.00,VWS V14.00,2013-05-03 17:45:00,
2013-05-03 11:50:00,67.1,27.0,34.55,WNW,291,5.4,12.8,22,0.00,,OVC055,0.00,VWS V14.00,2013-05-03 17:50:00,
2013-05-03 11:55:00,67.6,28.5,34.55,WNW,284,3.6,12.8,23,0.00,,OVC055,0.00,VWS V14.00,2013-05-03 17:55:00,
2013-05-03 12:00:00,68.4,28.1,34.55,West,276,6.3,6.3,22,0.00,,OVC055,0.00,VWS V14.00,2013-05-03 18:00:00,
2013-05-03 12:05:00,68.0,27.8,34.55,WSW,241,3.6,8.7,22,0.00,,OVC070,0.00,VWS V14.00,2013-05-03 18:05:00,
2013-05-03 12:10:00,67.8,27.6,34.55,NW,318,6.3,13.2,22,0.00,,OVC070,0.00,VWS V14.00,2013-05-03 18:10:00,
2013-05-03 12:15:00,67.5,27.3,34.55,WSW,257,5.8,13.2,22,0.00,,OVC070,0.00,VWS V14.00,2013-05-03 18:15:00,
2013-05-03 12:20:00,67.3,27.2,34.55,WSW,257,3.1,13.2,22,0.00,,OVC070,0.00,VWS V14.00,2013-05-03 18:20:00,
2013-05-03 12:25:00,67.3,27.2,34.55,WNW,283,8.3,13.2,22,0.00,,OVC070,0.00,VWS V14.00,2013-05-03 18:25:00,
2013-05-03 12:30:00,67.3,27.2,34.55,WSW,241,8.1,8.1,22,0.00,,OVC070,0.00,VWS V14.00,2013-05-03 18:30:00,
2013-05-03 12:35:00,67.3,27.2,34.55,SW,230,6.3,12.8,22,0.00,,OVC070,0.00,VWS V14.00,2013-05-03 18:35:00,
2013-05-03 12:40:00,67.5,27.3,34.55,WSW,249,7.6,12.8,22,0.00,,OVC070,0.00,VWS V14.00,2013-05-03 18:40:00,
2013-05-03 12:45:00,67.5,27.3,34.55,West,272,4.0,13.2,22,0.00,,OVC070,0.00,VWS V14.00,2013-05-03 18:45:00,
2013-05-03 12:50:00,67.6,27.5,34.55,West,270,3.1,13.2,22,0.00,,OVC070,0.00,VWS V14.00,2013-05-03 18:50:00,
2013-05-03 12:55:00,67.5,27.3,34.55,NW,317,3.6,13.2,22,0.00,,OVC070,0.00,VWS V14.00,2013-05-03 18:55:00,
2013-05-03 13:00:00,67.5,27.3,34.55,WNW,288,0.0,0.0,22,0.00,,OVC070,0.00,VWS V14.00,2013-05-03 19:00:00,
2013-05-03 13:05:00,67.5,27.3,34.55,West,273,12.3,12.3,22,0.00,,-RA,0.00,VWS V14.00,2013-05-03 19:05:00,
2013-05-03 13:10:00,67.5,27.3,34.55,WSW,242,8.3,16.3,22,0.00,,-RA,0.00,VWS V14.00,2013-05-03 19:10:00,
2013-05-03 13:15:00,67.6,27.5,34.55,NNW,332,8.1,16.3,22,0.00,,-RA,0.00,VWS V14.00,2013-05-03 19:15:00,
2013-05-03 13:20:00,67.6,27.5,34.55,SSW,203,7.6,16.3,22,0.00,,-RA,0.00,VWS V14.00,2013-05-03 19:20:00,
2013-05-03 13:25:00,67.6,27.5,34.52,West,272,14.5,16.3,22,0.00,,-RA,0.00,VWS V14.00,2013-05-03 19:25:00,
2013-05-03 13:30:00,67.5,27.3,34.52,WNW,300,5.4,16.3,22,0.00,,-RA,0.00,VWS V14.00,2013-05-03 19:30:00,
2013-05-03 13:35:00,67.3,27.2,34.52,NW,325,5.4,6.3,22,0.00,,-RA,0.00,VWS V14.00,2013-05-03 19:35:00,
2013-05-03 13:40:00,67.1,27.0,34.55,North,349,4.5,8.1,22,0.00,,-RA,0.00,VWS V14.00,2013-05-03 19:40:00,
2013-05-03 13:45:00,67.5,27.3,34.55,WNW,284,10.1,10.1,22,0.00,,-RA,0.00,VWS V14.00,2013-05-03 19:45:00,
2013-05-03 13:50:00,68.0,27.8,34.55,WSW,258,7.6,12.3,22,0.00,,-RA,0.00,VWS V14.00,2013-05-03 19:50:00,
2013-05-03 13:55:00,67.6,28.5,34.55,NNW,332,3.6,12.3,23,0.00,,-RA,0.00,VWS V14.00,2013-05-03 19:55:00,
2013-05-03 14:00:00,67.1,27.0,34.55,West,277,5.4,7.2,22,0.00,,-RA,0.00,VWS V14.00,2013-05-03 20:00:00,
2013-05-03 14:05:00,67.1,27.0,34.55,NW,314,11.0,11.0,22,0.00,,-RA,0.00,VWS V14.00,2013-05-03 20:05:00,
2013-05-03 14:10:00,67.3,27.2,34.55,WNW,295,3.6,13.2,22,0.00,,-RA,0.00,VWS V14.00,2013-05-03 20:10:00,
2013-05-03 14:15:00,67.5,28.4,34.55,West,271,8.1,13.2,23,0.00,,-RA,0.00,VWS V14.00,2013-05-03 20:15:00,
2013-05-03 14:20:00,67.6,28.5,34.55,WNW,289,2.2,13.2,23,0.00,,-RA,0.00,VWS V14.00,2013-05-03 20:20:00,
2013-05-03 14:25:00,68.0,27.8,34.55,NW,323,5.4,13.2,22,0.00,,-RA,0.00,VWS V14.00,2013-05-03 20:25:00,
2013-05-03 14:30:00,67.6,28.5,34.55,ENE,63,8.7,8.7,23,0.00,,-RA,0.00,VWS V14.00,2013-05-03 20:30:00,
2013-05-03 14:35:00,67.1,27.0,34.55,NNW,332,8.3,8.7,22,0.00,,-RA,0.00,VWS V14.00,2013-05-03 20:35:00,
2013-05-03 14:40:00,66.9,27.9,34.55,NNW,345,5.4,9.2,23,0.00,,-RA,0.00,VWS V14.00,2013-05-03 20:40:00,
2013-05-03 14:45:00,66.4,27.5,34.55,North,6,4.0,10.1,23,0.00,,-RA,0.00,VWS V14.00,2013-05-03 20:45:00,
2013-05-03 14:50:00,66.4,26.4,34.55,NE,36,3.1,10.1,22,0.00,,-RA,0.00,VWS V14.00,2013-05-03 20:50:00,
2013-05-03 14:55:00,66.4,26.4,34.55,ENE,74,0.0,10.1,22,0.00,,-RA,0.00,VWS V14.00,2013-05-03 20:55:00,
2013-05-03 15:00:00,66.7,27.8,34.55,NE,38,5.4,10.1,23,0.00,,-RA,0.00,VWS V14.00,2013-05-03 21:00:00,
2013-05-03 15:05:00,66.2,27.3,34.55,North,0,8.3,15.4,23,0.00,,-RA,0.00,VWS V14.00,2013-05-03 21:05:00,
2013-05-03 15:10:00,65.8,27.0,34.55,ESE,108,6.3,15.4,23,0.00,,-RA,0.00,VWS V14.00,2013-05-03 21:10:00,
2013-05-03 15:15:00,65.8,27.0,34.55,East,83,4.0,15.4,23,0.00,,-RA,0.00,VWS V14.00,2013-05-03 21:15:00,
2013-05-03 15:20:00,66.2,27.3,34.55,NE,48,5.4,15.4,23,0.00,,-RA,0.00,VWS V14.00,2013-05-03 21:20:00,
2013-05-03 15:25:00,66.4,26.4,34.55,NNE,24,5.4,15.4,22,0.00,,-RA,0.00,VWS V14.00,2013-05-03 21:25:00,
2013-05-03 15:30:00,66.6,26.6,34.55,North,7,4.0,4.0,22,0.00,,-RA,0.00,VWS V14.00,2013-05-03 21:30:00,
2013-05-03 15:35:00,66.7,27.8,34.55,North,357,4.9,8.7,23,0.00,,-RA,0.00,VWS V14.00,2013-05-03 21:35:00,
2013-05-03 15:40:00,66.7,27.8,34.55,North,0,3.1,12.3,23,0.00,,-RA,0.00,VWS V14.00,2013-05-03 21:40:00,
2013-05-03 15:45:00,66.6,26.6,34.55,NNW,341,10.5,12.3,22,0.00,,-RA,0.00,VWS V14.00,2013-05-03 21:45:00,
2013-05-03 15:50:00,66.0,27.2,34.55,North,0,4.0,12.3,23,0.00,,-RA,0.00,VWS V14.00,2013-05-03 21:50:00,
2013-05-03 15:55:00,65.8,27.0,34.52,NW,307,5.4,12.3,23,0.00,,-RA,0.00,VWS V14.00,2013-05-03 21:55:00,
2013-05-03 16:00:00,65.7,26.9,34.52,NNE,17,8.3,12.3,23,0.00,,-RA,0.00,VWS V14.00,2013-05-03 22:00:00,
2013-05-03 16:05:00,65.1,26.4,34.52,NNW,340,2.7,8.3,23,0.00,,-RA,0.00,VWS V14.00,2013-05-03 22:05:00,
2013-05-03 16:10:00,65.1,26.4,34.55,NE,34,3.1,8.3,23,0.00,,-RA,0.00,VWS V14.00,2013-05-03 22:10:00,
2013-05-03 16:15:00,64.9,26.3,34.55,North,353,8.1,8.3,23,0.00,,-RA,0.00,VWS V14.00,2013-05-03 22:15:00,
2013-05-03 16:20:00,64.8,26.1,34.55,North,357,3.6,8.3,23,0.00,,-RA,0.00,VWS V14.00,2013-05-03 22:20:00,
2013-05-03 16:24:00,64.4,25.8,34.52,WNW,298,5.8,8.3,23,0.00,,-RA,0.00,VWS V14.00,2013-05-03 22:24:00,
2013-05-03 16:29:00,64.4,25.8,34.52,NNW,332,3.6,8.3,23,0.00,,-RA,0.00,VWS V14.00,2013-05-03 22:29:00,
2013-05-03 16:34:00,64.2,26.7,34.52,NNW,334,5.8,15.0,24,0.00,,-RA,0.00,VWS V14.00,2013-05-03 22:34:00,
2013-05-03 16:39:00,64.0,26.5,34.55,North,357,6.3,15.0,24,0.00,,-RA,0.00,VWS V14.00,2013-05-03 22:39:00,
2013-05-03 16:44:00,64.0,26.5,34.55,West,265,4.0,15.0,24,0.00,,-RA,0.00,VWS V14.00,2013-05-03 22:44:00,
2013-05-03 16:49:00,64.2,26.7,34.55,West,264,4.0,15.0,24,0.00,,-RA,0.00,VWS V14.00,2013-05-03 22:49:00,
2013-05-03 16:54:00,64.0,26.5,34.55,NNW,335,0.0,15.0,24,0.00,,-RA,0.00,VWS V14.00,2013-05-03 22:54:00,
2013-05-03 16:59:00,63.9,26.4,34.55,South,190,2.7,15.0,24,0.00,,-RA,0.00,VWS V14.00,2013-05-03 22:59:00,
2013-05-03 17:04:00,63.9,26.4,34.55,SE,127,0.0,0.0,24,0.00,,-RA,0.00,VWS V14.00,2013-05-03 23:04:00,
2013-05-03 17:09:00,63.5,26.1,34.55,NNE,18,2.7,6.3,24,0.00,,-RA,0.00,VWS V14.00,2013-05-03 23:09:00,
2013-05-03 17:14:00,62.6,25.3,34.55,NNW,346,4.5,8.7,24,0.00,,-RA,0.00,VWS V14.00,2013-05-03 23:14:00,
2013-05-03 17:19:00,62.1,24.9,34.55,NE,41,5.8,8.7,24,0.00,,-RA,0.00,VWS V14.00,2013-05-03 23:19:00,
2013-05-03 17:24:00,61.9,24.7,34.55,ENE,72,2.2,8.7,24,0.00,,-RA,0.00,VWS V14.00,2013-05-03 23:24:00,
2013-05-03 17:29:00,61.5,24.4,34.55,ENE,75,4.0,8.7,24,0.00,,-RA,0.00,VWS V14.00,2013-05-03 23:29:00,
2013-05-03 17:34:00,61.3,24.3,34.55,ENE,77,3.6,6.3,24,0.00,,-RA,0.00,VWS V14.00,2013-05-03 23:34:00,
2013-05-03 17:39:00,61.3,25.2,34.55,ESE,122,8.1,8.1,25,0.00,,-RA,0.00,VWS V14.00,2013-05-03 23:39:00,
2013-05-03 17:44:00,61.0,24.9,34.55,East,90,3.1,8.7,25,0.00,,-RA,0.00,VWS V14.00,2013-05-03 23:44:00,
2013-05-03 17:49:00,60.8,24.8,34.55,East,81,4.0,8.7,25,0.00,,-RA,0.00,VWS V14.00,2013-05-03 23:49:00,
2013-05-03 17:54:00,60.6,24.6,34.55,ENE,60,2.7,8.7,25,0.00,,-RA,0.00,VWS V14.00,2013-05-03 23:54:00,
2013-05-03 17:59:00,60.4,24.5,34.55,NE,46,0.0,8.7,25,0.00,,-RA,0.00,VWS V14.00,2013-05-03 23:59:00,
2013-05-03 18:04:00,60.3,24.3,34.55,North,357,4.9,7.6,25,0.00,,-RA,0.00,VWS V14.00,2013-05-04 00:04:00,
2013-05-03 18:09:00,60.1,24.2,34.55,East,93,4.9,8.3,25,0.00,,-RA,0.00,VWS V14.00,2013-05-04 00:09:00,
2013-05-03 18:14:00,59.9,25.0,34.55,ENE,76,3.1,8.7,26,0.00,,-RA,0.00,VWS V14.00,2013-05-04 00:14:00,
2013-05-03 18:19:00,59.7,24.8,34.55,NE,43,0.0,8.7,26,0.00,,-RA,0.00,VWS V14.00,2013-05-04 00:19:00,
2013-05-03 18:24:00,59.4,24.5,34.55,NE,44,4.5,8.7,26,0.00,,-RA,0.00,VWS V14.00,2013-05-04 00:24:00,
2013-05-03 18:29:00,59.4,24.5,34.55,East,91,0.0,8.7,26,0.00,,-RA,0.00,VWS V14.00,2013-05-04 00:29:00,
2013-05-03 18:34:00,59.2,24.3,34.55,East,97,2.7,9.2,26,0.00,,-RA,0.00,VWS V14.00,2013-05-04 00:34:00,
2013-05-03 18:39:00,59.2,25.2,34.52,ENE,62,0.0,9.2,27,0.00,,-RA,0.00,VWS V14.00,2013-05-04 00:39:00,
2013-05-03 18:44:00,58.8,24.9,34.52,North,5,4.9,9.2,27,0.00,,-RA,0.00,VWS V14.00,2013-05-04 00:44:00,
2013-05-03 18:49:00,58.5,25.5,34.52,NNW,346,3.1,9.6,28,0.00,,-RA,0.00,VWS V14.00,2013-05-04 00:49:00,
2013-05-03 18:54:00,58.1,28.4,34.55,SSW,193,3.6,9.6,32,0.00,,-RA,0.00,VWS V14.00,2013-05-04 00:54:00,
2013-05-03 18:59:00,57.6,30.1,34.55,West,266,0.0,9.6,35,0.00,,-RA,0.00,VWS V14.00,2013-05-04 00:59:00,
2013-05-03 19:04:00,57.0,29.7,34.55,NNW,339,8.1,10.1,35,0.00,,OVC060,0.00,VWS V14.00,2013-05-04 01:04:00,
2013-05-03 19:09:00,56.7,29.3,34.52,NNW,338,3.6,10.5,35,0.00,,OVC060,0.00,VWS V14.00,2013-05-04 01:09:00,
2013-05-03 19:14:00,56.7,29.3,34.52,NNW,337,0.0,10.5,35,0.00,,OVC060,0.00,VWS V14.00,2013-05-04 01:14:00,
2013-05-03 19:19:00,56.7,30.0,34.52,South,185,3.1,10.5,36,0.00,,OVC060,0.00,VWS V14.00,2013-05-04 01:19:00,
2013-05-03 19:24:00,56.7,30.0,34.55,South,181,0.0,10.5,36,0.00,,OVC060,0.00,VWS V14.00,2013-05-04 01:24:00,
2013-05-03 19:29:00,56.5,29.9,34.55,NW,317,0.0,10.5,36,0.00,,OVC060,0.00,VWS V14.00,2013-05-04 01:29:00,
2013-05-03 19:34:00,56.3,29.0,34.55,NNW,340,5.8,6.3,35,0.00,,OVC060,0.00,VWS V14.00,2013-05-04 01:34:00,
2013-05-03 19:39:00,56.1,29.5,34.55,North,0,3.6,6.3,36,0.00,,OVC060,0.00,VWS V14.00,2013-05-04 01:39:00,
2013-05-03 19:44:00,55.9,30.1,34.55,East,84,4.9,10.1,37,0.00,,OVC060,0.00,VWS V14.00,2013-05-04 01:44:00,
2013-05-03 19:49:00,55.8,30.6,34.55,NE,47,4.9,10.1,38,0.00,,OVC060,0.00,VWS V14.00,2013-05-04 01:49:00,
2013-05-03 19:54:00,55.6,31.0,34.55,NE,55,3.1,10.1,39,0.00,,OVC060,0.00,VWS V14.00,2013-05-04 01:54:00,
2013-05-03 19:59:00,55.4,31.5,34.55,WNW,293,6.7,10.1,40,0.00,,OVC060,0.00,VWS V14.00,2013-05-04 01:59:00,
2013-05-03 20:04:00,55.2,32.0,34.55,West,265,5.8,7.6,41,0.00,,OVC060,0.00,VWS V14.00,2013-05-04 02:04:00,
2013-05-03 20:09:00,54.9,31.6,34.52,NW,321,5.8,10.1,41,0.00,,OVC060,0.00,VWS V14.00,2013-05-04 02:09:00,
2013-05-03 20:14:00,54.5,31.3,34.52,NNW,331,4.0,15.4,41,0.00,,OVC060,0.00,VWS V14.00,2013-05-04 02:14:00,
2013-05-03 20:19:00,54.3,31.7,34.52,NNW,341,2.7,15.4,42,0.00,,OVC060,0.00,VWS V14.00,2013-05-04 02:19:00,
2013-05-03 20:24:00,54.1,31.6,34.55,WNW,292,3.6,15.4,42,0.00,,OVC060,0.00,VWS V14.00,2013-05-04 02:24:00,
2013-05-03 20:29:00,53.8,31.8,34.55,NNW,333,7.6,15.4,43,0.00,,OVC060,0.00,VWS V14.00,2013-05-04 02:29:00,
2013-05-03 20:34:00,53.4,32.6,34.55,NNW,340,3.1,11.0,45,0.00,,OVC060,0.00,VWS V14.00,2013-05-04 02:34:00,
2013-05-03 20:39:00,53.2,33.0,34.55,NW,320,6.3,11.9,46,0.00,,OVC060,0.00,VWS V14.00,2013-05-04 02:39:00,
2013-05-03 20:44:00,53.1,33.4,34.55,NNW,334,7.6,11.9,47,0.00,,OVC060,0.00,VWS V14.00,2013-05-04 02:44:00,
2013-05-03 20:49:00,52.9,33.2,34.55,North,357,3.6,11.9,47,0.00,,OVC060,0.00,VWS V14.00,2013-05-04 02:49:00,
2013-05-03 20:54:00,52.7,33.6,34.55,North,3,4.0,13.2,48,0.00,,OVC060,0.00,VWS V14.00,2013-05-04 02:54:00,
2013-05-03 20:59:00,52.3,33.8,34.55,NW,325,4.0,13.2,49,0.00,,OVC060,0.00,VWS V14.00,2013-05-04 02:59:00,
2013-05-03 21:04:00,52.2,34.6,34.55,North,2,2.7,6.3,51,0.00,,OVC060,0.00,VWS V14.00,2013-05-04 03:04:00,
2013-05-03 21:09:00,51.8,34.3,34.55,NNW,345,8.3,10.1,51,0.00,,OVC060,0.00,VWS V14.00,2013-05-04 03:09:00,
2013-05-03 21:14:00,51.6,35.1,34.55,North,353,3.6,10.1,53,0.00,,OVC060,0.00,VWS V14.00,2013-05-04 03:14:00,
2013-05-03 21:19:00,51.3,35.2,34.55,North,353,3.6,10.1,54,0.00,,OVC060,0.00,VWS V14.00,2013-05-04 03:19:00,
2013-05-03 21:24:00,50.9,35.8,34.55,North,353,5.4,11.0,56,0.00,,OVC060,0.00,VWS V14.00,2013-05-04 03:24:00,
2013-05-03 21:29:00,50.5,35.9,34.55,North,1,6.3,11.0,57,0.00,,OVC060,0.00,VWS V14.00,2013-05-04 03:29:00,
2013-05-03 21:34:00,50.4,36.2,34.55,North,3,3.6,10.1,58,0.00,,OVC060,0.00,VWS V14.00,2013-05-04 03:34:00,
2013-05-03 21:39:00,50.2,36.8,34.55,North,5,5.4,10.5,60,0.00,,OVC060,0.00,VWS V14.00,2013-05-04 03:39:00,
2013-05-03 21:44:00,49.8,36.9,34.55,North,0,6.3,10.5,61,0.00,,OVC060,0.00,VWS V14.00,2013-05-04 03:44:00,
2013-05-03 21:49:00,49.6,37.6,34.55,NNW,340,5.4,11.0,63,0.00,,OVC060,0.00,VWS V14.00,2013-05-04 03:49:00,
2013-05-03 21:54:00,49.3,37.6,34.55,NNW,340,5.4,11.0,64,0.00,,OVC060,0.00,VWS V14.00,2013-05-04 03:54:00,
2013-05-03 21:59:00,49.1,38.2,34.55,NNE,17,5.4,11.0,66,0.00,,OVC060,0.00,VWS V14.00,2013-05-04 03:59:00,
2013-05-03 22:01:00,48.9,38.5,34.55,North,11,6.3,7.2,67,0.00,,OVC060,0.00,VWS V14.00,2013-05-04 04:01:00,
2013-05-03 22:06:00,48.7,39.0,34.55,North,357,5.4,8.3,69,0.00,,-RA,0.00,VWS V14.00,2013-05-04 04:06:00,
2013-05-03 22:11:00,48.6,39.2,34.55,North,2,4.0,8.3,70,0.00,,-RA,0.00,VWS V14.00,2013-05-04 04:11:00,
2013-05-03 22:16:00,48.4,39.4,34.55,North,353,8.1,12.3,71,0.00,,-RA,0.00,VWS V14.00,2013-05-04 04:16:00,
2013-05-03 22:21:00,48.2,40.0,34.55,North,349,8.3,12.3,73,0.00,,-RA,0.00,VWS V14.00,2013-05-04 04:21:00,
2013-05-03 22:26:00,47.8,40.3,34.55,North,357,8.3,12.3,75,0.00,,-RA,0.00,VWS V14.00,2013-05-04 04:26:00,
2013-05-03 22:31:00,47.7,40.5,34.55,North,7,7.6,7.6,76,0.00,,-RA,0.00,VWS V14.00,2013-05-04 04:31:00,
2013-05-03 22:36:00,47.7,41.2,34.55,North,357,4.0,8.7,78,0.00,,-RA,0.00,VWS V14.00,2013-05-04 04:36:00,
2013-05-03 22:41:00,47.5,41.3,34.55,North,353,8.1,8.7,79,0.00,,-RA,0.00,VWS V14.00,2013-05-04 04:41:00,
2013-05-03 22:46:00,47.5,41.3,34.55,North,357,3.6,10.1,79,0.00,,-RA,0.00,VWS V14.00,2013-05-04 04:46:00,
2013-05-03 22:51:00,47.3,41.5,34.55,NE,36,5.8,11.0,80,0.00,,-RA,0.00,VWS V14.00,2013-05-04 04:51:00,
2013-05-03 22:56:00,47.3,41.8,34.55,NNE,14,6.3,11.0,81,0.00,,-RA,0.00,VWS V14.00,2013-05-04 04:56:00,
2013-05-03 23:01:00,47.3,41.8,34.55,NNW,344,7.6,9.6,81,0.00,,-RA,0.00,VWS V14.00,2013-05-04 05:01:00,
2013-05-03 23:06:00,47.3,41.5,34.55,NNW,341,6.3,9.6,80,0.00,,-RA,0.00,VWS V14.00,2013-05-04 05:06:00,
2013-05-03 23:11:00,47.3,41.1,34.55,North,0,6.3,11.0,79,0.00,,-RA,0.00,VWS V14.00,2013-05-04 05:11:00,
2013-05-03 23:16:00,47.1,41.0,34.55,North,357,8.7,11.0,79,0.00,,-RA,0.00,VWS V14.00,2013-05-04 05:16:00,
2013-05-03 23:21:00,46.9,40.5,34.55,NNE,29,6.3,11.0,78,0.00,,-RA,0.00,VWS V14.00,2013-05-04 05:21:00,
2013-05-03 23:26:00,46.8,40.6,34.55,NNE,15,8.3,11.0,79,0.00,,-RA,0.00,VWS V14.00,2013-05-04 05:26:00,
2013-05-03 23:31:00,46.8,40.6,34.55,North,357,4.0,6.3,79,0.00,,-RA,0.00,VWS V14.00,2013-05-04 05:31:00,
2013-05-03 23:36:00,46.8,40.6,34.55,North,357,6.3,8.7,79,0.00,,-RA,0.00,VWS V14.00,2013-05-04 05:36:00,
2013-05-03 23:41:00,46.8,40.3,34.55,NNW,345,5.4,8.7,78,0.00,,-RA,0.00,VWS V14.00,2013-05-04 05:41:00,
2013-05-03 23:46:00,46.9,40.1,34.55,North,357,10.1,10.1,77,0.00,,-RA,0.00,VWS V14.00,2013-05-04 05:46:00,
2013-05-03 23:51:00,46.9,39.8,34.55,North,357,4.0,10.5,76,0.00,,-RA,0.00,VWS V14.00,2013-05-04 05:51:00,
2013-05-03 23:56:00,46.9,39.8,34.55,NNW,346,6.3,10.5,76,0.00,,-RA,0.00,VWS V14.00,2013-05-04 05:56:00,